Regional Weather Roundup
Issued by NWS

Home | Current Version | Previous Version | Graphics & Text | Print | Product List | Glossary On
Versions: 1 2 3 4 5 6 7 8 9 10 11 12 13 14 15 16 17 18 19 20 21 22 23 24 25 26 27 28 29 30 31 32 33 34 35 36 37 38 39 40 41 42 43 44 45 46 47 48 49 50
432
ASUS43 KMKX 201600
RWRWI

WISCONSIN REGIONAL WEATHER ROUNDUP
NATIONAL WEATHER SERVICE MILWAUKEE/SULLIVAN WI
1100 AM CDT WED SEP 20 2017

NOTE: "FAIR" INDICATES FEW OR NO CLOUDS BELOW 12,000 FEET WITH NO
SIGNIFICANT WEATHER AND/OR OBSTRUCTIONS TO VISIBILITY.

WIZ001-002-006>008-014>016-023>028-201700-
NORTHWEST WISCONSIN

CITY           SKY/WX    TMP DP  RH WIND       PRES   REMARKS
SUPERIOR ARPT  CLOUDY    70  67  89 S7        29.64F
ASHLAND        CLOUDY    70  64  81 S13G24    29.69R
HAYWARD        CLOUDY    68  64  87 S8        29.72R
SIREN          CLOUDY    74  66  75 SW8G18    29.69R
CUMBERLAND     CLOUDY    68  63  83 S10       29.72R
RICE LAKE      CLOUDY    70  65  83 S8        29.74R
CHETEK         CLOUDY    70  66  87 S10       29.72F
LADYSMITH      CLOUDY    68  64  88 SE8       29.77S
EAU CLAIRE     NOT AVBL
MENOMONIE      PTSUNNY   74  68  80 SE8       29.71S
NEW RICHMOND   CLOUDY    72  64  76 W15       29.72R
OSCEOLA        CLOUDY    70  62  76 SW12      29.75R
$$

WIZ003>005-009-010-017-018-201700-
NORTH CENTRAL WISCONSIN

CITY           SKY/WX    TMP DP  RH WIND       PRES   REMARKS
MANITOWISH WTR CLOUDY    64  64 100 S12G17    29.79S
ARBOR VITAE    CLOUDY    64  62  91 S14G21    29.80S
WOODRUFF       CLOUDY    64  62  91 S14G21    29.80S
RHINELANDER    CLOUDY    64  63  96 SE14G22   29.84S
EAGLE RIVER    CLOUDY    64  63  97 S9G16     29.83R
LAND O LAKES   CLOUDY    65  62  89 S9        29.83F
PHILLIPS       CLOUDY    64  64  99 SE10      29.78R
TOMAHAWK         N/A     62  61  95 S6        29.82S FOG
MEDFORD        CLOUDY    65  63  93 SE10      29.80R FOG
MERRILL          N/A     64  64 100 SE10G17   29.84R
$$

WIZ029-030-035-036-043>047-201700-
CENTRAL WISCONSIN

CITY           SKY/WX    TMP DP  RH WIND       PRES   REMARKS
WAUSAU         CLOUDY    66  64  93 SE9       29.82R
MOSINEE        CLOUDY    66  64  94 SE13      29.84S FOG
MARSHFIELD     CLOUDY    71  63  75 S9G18     29.80R
STEVENS POINT  CLOUDY    68  66  93 SE8       29.84R
WAUPACA        PTSUNNY   73  67  82 SE9       29.84F
WAUTOMA        CLOUDY    73  68  84 SE7       29.83F
WISC RAPIDS    CLOUDY    73  65  75 SE12      29.81F
CAMP DOUGLAS   NOT AVBL
$$

WIZ011>013-019>022-031-037>040-048>050-201700-
NORTHEAST WISCONSIN

CITY           SKY/WX    TMP DP  RH WIND       PRES   REMARKS
ANTIGO         CLOUDY    61  61 100 SE16      29.87S FOG
SHAWANO        TSTM      68  65  88 E12       29.89S
OCONTO         CLOUDY    68  65  88 SE10      29.91R
STURGEON BAY   CLOUDY    68  65  90 S18G24    29.92S FOG
GREEN BAY      CLOUDY    74  67  78 S20       29.89R
MANITOWOC      CLOUDY    69  66  90 SE14G20   29.93R FOG
APPLETON       PTSUNNY   72  64  78 SE16G23   29.87S
CLINTONVILLE   DRIZZLE   68  63  83 E9        29.88F
OSHKOSH        CLOUDY    76  66  71 S16G25    29.86S
$$

WIZ032>034-041-042-053>061-201700-
SOUTHWEST WISCONSIN

CITY           SKY/WX    TMP DP  RH WIND       PRES   REMARKS
LA CROSSE      SUNNY     81  68  64 S14G24    29.73S HX  84
SPARTA         SUNNY     76  67  72 S10G18    29.77R
VIROQUA        MOSUNNY   76  68  76 S10G18    29.78F
BOSCOBEL       SUNNY     81  67  62 S10G20    29.78F HX  83
PRAIRIE DU CHI SUNNY     80  65  61 S7        29.77F HX  82
PLATTEVILLE    SUNNY     78  70  75 S15       29.84R HX  81
$$

WIZ056-057-062-063-064-067-068-201700-
SOUTH CENTRAL WISCONSIN

CITY           SKY/WX    TMP DP  RH WIND       PRES   REMARKS
REEDSBURG      CLOUDY    75  69  79 S8        29.82R
BARABOO/DELLS  CLOUDY    74  65  72 S14G20    29.82S
LONE ROCK      NOT AVBL
MINERAL POINT  SUNNY     79  70  73 S15       29.84R HX  81
MADISON        PTSUNNY   79  67  66 S15       29.84S HX  81
MIDDLETON      MOSUNNY   79  67  66 S10       29.85S HX  81
WATERTOWN      SUNNY     78  68  71 SE12      29.87F HX  80
MONROE         MOSUNNY   79  66  65 S12       29.85F HX  81
JANESVILLE     PTSUNNY   82  66  57 S12       29.86F HX  85
$$

WIZ051-052-058>065-066-070>072-201700-
SOUTHEAST WISCONSIN

CITY           SKY/WX    TMP DP  RH WIND       PRES   REMARKS
MILWAUKEE      MOSUNNY   75  68  78 SE12      29.91R
WAUKESHA       MOSUNNY   75  66  73 SE12      29.92R
MILWAUKEE/TIMM MOSUNNY   73  64  73 SE21      29.92R
RACINE         CLOUDY    74  68  81 SE13      29.94R
BURLINGTON     SUNNY     80  69  69 S9        29.90S HX  82
KENOSHA        PTSUNNY   78  67  68 SE12      29.92R HX  80
FOND DU LAC    SUNNY     76  64  66 SE18G24   29.87R
SHEBOYGAN      CLOUDY    72  68  87 S15G23    29.92R
WEST BEND        N/A     72  68  88 SE8       29.91S
JUNEAU         SUNNY     75  66  75 SE16      29.88S
$$

LSZ147-162-201700-
LAKE SUPERIOR

STATION/POSITION TIME  TEMP    WIND        PRES    WAVE
                       AIR SEA DIR/SP/G            HT/PER
                 (UTC) (F)     (DEG/KT/KT) (MB)    (FT/S)
W MID LAKE BUOY  1450   59 54  120/ 14/ 16 1005.4F   3/ 4
DEVILS ISLAND    1500   65     150/ 12/ 20 1004.5F
PORT WING        1340   65     140/  6/ 14 1004.7S
SAXON HARBOR     1530   71     190/  8/ 17 1004.7S
$$

LMZ867-665-643>646-201700-
LAKE MICHIGAN

STATION/POSITION TIME  TEMP    WIND        PRES    WAVE
                       AIR SEA DIR/SP/G            HT/PER
                 (UTC) (F)     (DEG/KT/KT) (MB)    (FT/S)
S GREEN BAY BUOY 1530   67 66  150/ 16/ 17 1012.4S
N MID LAKE BUOY  1450   65 64  150/ 12/ 16 1014.3F   2/ 4
NORTHPORT PIER   1540   65     150/ 10/ 18 1013.5S
KEWAUNEE LAKESHO 1524   62     160/  9/ 10 1012.6
SHEBOYGAN LAKESH 1500   65     160/ 13/ 14 1012.6R
PORT WASHINGTON  1530   69     160/ 13/ 16 1013.9R
ATWATER BUOY     1409   68 68  150/ 16/ 19 1012.6F
MILWAUKEE LAKESH 1530   67     160/ 11/ 12   N/A
S MID LAKE BUOY  1450   66 68  100/ 16/ 17 1013.5F   2/ 3
KENOSHA   LAKESH 1500   69     160/ 14/ 15 1012.9
$$

TC  - TEMPERATURE IN CELSIUS
VSB - VISIBILITY IN STATUTE MILES
WCI - WIND CHILL INDEX
HX  - HEAT INDEX





USA.gov is the U.S. government's official web portal to all federal, state and local government web resources and services.